Regional Weather Roundup
Issued by NWS

Home | Current Version | Previous Version | Text Only | Print | Product List | Glossary On
Versions: 1 2 3 4 5 6 7 8 9 10 11 12 13 14 15 16 17 18 19 20 21 22 23 24 25 26 27 28 29 30 31 32 33 34 35 36 37 38 39 40 41 42 43 44 45 46 47 48 49 50
000
ASUS46 KSEW 192110
RWRWA

WASHINGTON REGIONAL WEATHER ROUNDUP
NATIONAL WEATHER SERVICE SEATTLE WA
200 PM PDT FRI SEP 19 2014

NOTE:"FAIR" INDICATES FEW OR NO CLOUDS BELOW 12,000 FEET WITH NO
SIGNIFICANT WEATHER AND/OR OBSTRUCTIONS TO VISIBILITY.

WAZ505-507>509-192200-
SEATTLE, TACOMA, EVERETT, AND VICINITY

CITY           SKY/WX    TMP DP  RH WIND       PRES   REMARKS
EVERETT        CLOUDY    69  54  58 VRB5      30.12S
BOEING FIELD   MOSUNNY   75  53  46 S10       30.09F
RENTON         MOSUNNY   74  58  57 SE6       30.09S
SEATAC AIRPORT MOSUNNY   72  55  55 SW8       30.11F
JBLM-MCCHORD   SUNNY     74  57  54 SW5       30.10S
PUYALLUP       NOT AVBL
JBLM-FT LEWIS  SUNNY     75  56  52 S8        30.09F
TACOMA NARROWS MOSUNNY   72  56  57 S6        30.10F
$$

WAZ001-503-506-510-514-515-192200-
NORTH INTERIOR

CITY           SKY/WX    TMP DP  RH WIND       PRES   REMARKS
BELLINGHAM     CLOUDY    63  59  87 S9        30.11S
FRIDAY HARBOR  CLOUDY    65  58  78 E5        30.12S
EASTSOUND      PTSUNNY   64  59  82 S9        30.09S
PORT ANGELES     N/A     66  58  75 VRB5      30.11R
NAS WHIDBEY    PTSUNNY   71  58  63 SE13      30.11S
BURLINGTON     CLOUDY    64  63  94 SE6       30.13S
$$

WAZ020-022-039-040-504-511-512-192200-
SOUTHWEST INTERIOR

CITY           SKY/WX    TMP DP  RH WIND       PRES   REMARKS
SHELTON        PTSUNNY   69  58  67 SW9       30.09S
OLYMPIA        CLOUDY    74  56  53 NW6       30.10S
CHEHALIS       CLOUDY    77  59  53 W9        30.09S
KELSO          SUNNY     75  55  50 NW6       30.11F
VANCOUVER      SUNNY     77  50  38 NW10      30.06F
SCAPPOOSE, OR  SUNNY     78  56  46 SE7       30.06F
PORTLAND, OR   MOSUNNY   77  54  44 W7        30.07F
$$

WAZ021-516-517-192200-
WASHINGTON COAST

CITY           SKY/WX    TMP DP  RH WIND       PRES   REMARKS
FORKS          CLOUDY    64  61  90 W3        30.11S FOG
HOQUIAM        CLOUDY    62  62 100 S5        30.12F FOG
ASTORIA, OR    CLOUDY    70  56  61 W8        30.11S
$$

WAZ019-023-024-040-518-519-192200-
CASCADE MOUNTAINS AND COLUMBIA GORGE

CITY           SKY/WX    TMP DP  RH WIND       PRES   REMARKS
STAMPEDE PASS  NOT AVBL
TROUTDALE, OR  SUNNY     79  55  43 NW7       30.05F
THE DALLES, OR SUNNY     84  50  30 N17       29.98F
$$

WAZ026-027-041>044-520-521-192200-
EAST SLOPES

CITY           SKY/WX    TMP DP  RH WIND       PRES   REMARKS
OMAK           PTSUNNY   82  46  28 S8        29.97F
WENATCHEE      MOSUNNY   82  47  29 NE3       29.98F
ELLENSBURG     SUNNY     81  52  36 NW17      30.02F
YAKIMA         SUNNY     81  49  32 E6        30.00F
$$

WAZ028-034-035-192200-
COLUMBIA BASIN

CITY           SKY/WX    TMP DP  RH WIND       PRES   REMARKS
EPHRATA        PTSUNNY   81  46  29 S8G18     29.99F
MOSES LAKE     MOSUNNY   82  47  29 VRB5      30.00F
PASCO          SUNNY     82  51  34 SW8       30.00F
HERMISTON, OR  SUNNY     82  49  31 SW7       30.00F
$$

WAZ036>038-192200-
NORTHEAST WASHINGTON

CITY           SKY/WX    TMP DP  RH WIND       PRES   REMARKS
SPOKANE GEIGER PTSUNNY   74  47  38 SW13      30.05F
SPOKANE FELTS  PTSUNNY   74  47  38 W9        30.05S
FAIRCHILD AFB  MOSUNNY   73  47  38 S12       30.06S
COEURDALENE,ID PTSUNNY   73  48  40 W13       30.04F
DEER PARK      MOSUNNY   73  48  41 S8        30.04F
$$

WAZ029>033-192200-
SOUTHEAST WASHINGTON

CITY           SKY/WX    TMP DP  RH WIND       PRES   REMARKS
PULLMAN        SUNNY     71  47  42 W7        30.10S
LEWISTON, ID   SUNNY     79  47  32 NW5       30.03S
WALLA WALLA    SUNNY     78  49  35 SW9       30.04F
PENDLETON, OR  SUNNY     79  47  32 VRB6      30.03F
$$


USA.gov is the U.S. government's official web portal to all federal, state and local government web resources and services.